Regional Weather Roundup
Issued by NWS Newport/Morehead, NC

Current Version | Previous Version | Graphics & Text | Print | Product List | Glossary On
Versions: 1 2 3 4 5 6 7 8 9 10 11 12 13 14 15 16 17 18 19 20 21 22 23 24 25 26 27 28 29 30 31 32 33 34 35 36 37 38 39 40 41 42 43 44 45 46 47 48 49 50
000 ASUS42 KMHX 261622 RWRMHX WEATHER ROUNDUP FOR EASTERN NORTH CAROLINA NATIONAL WEATHER SERVICE NEWPORT/MOREHEAD CITY NC 1100 AM EST WED NOV 26 2014 NOTE: "FAIR" INDICATES FEW OR NO CLOUDS BELOW 12,000 FEET WITH NO SIGNIFICANT WEATHER AND/OR OBSTRUCTIONS TO VISIBILITY NCZ015>017-031-032-045>047-102-103-261700- NORTH COAST CITY SKY/WX TMP DP RH WIND PRES REMARKS EDENTON RAIN 47 46 97 N17G24 29.79F ELIZABETH CITY HVY RAIN 52 47 83 NW16G33 29.78S KITTY HAWK RAIN 55 55 100 N10G20 29.70F MANTEO LGT RAIN 54 54 99 N13 29.72S $$ NCZ045>047-081-094-103-104-261700- CENTRAL COAST CITY SKY/WX TMP DP RH WIND PRES REMARKS FRISCO LGT RAIN 71 71 100 S24G35 29.71F FOG SWANQUARTER N/A 52 N/A N/A NW22G28 29.68F $$ NCZ095-097-098-100-101-261700- SOUTHERN COAST CITY SKY/WX TMP DP RH WIND PRES REMARKS BEAUFORT LGT RAIN 57 56 96 NW26G32 29.73R CEDAR ISLAND N/A 72 N/A N/A S16G28 29.71F JACKSONVILLE LGT RAIN 48 45 89 NW16 29.81R PINEY ISLAND LGT RAIN 56 53 90 NW18G26 29.71F VSB 1 WILMINGTON LGT RAIN 49 48 97 NW16 29.85R $$ NCZ011>013-027>030-043-044-078>080-089-090>093-098-261700- COASTAL PLAIN CITY SKY/WX TMP DP RH WIND PRES REMARKS AHOSKIE RAIN 44 42 93 N12G25 29.87F CLINTON LGT RAIN 47 46 96 N13G18 29.88S ELIZABETHTOWN LGT RAIN 48 47 96 CALM 29.86F GOLDSBORO LGT RAIN 46 45 93 N15G25 29.84F GREENVILLE LGT RAIN 45 43 93 N17G23 29.85F HAVELOCK RAIN 50 49 96 NW23G31 29.78R KENANSVILLE LGT RAIN 46 44 95 N14G21 29.88R KINSTON RAIN 46 45 93 N16G23 29.85R NEW BERN RAIN 49 45 86 NW14G23 29.80R FOG RICHLANDS CLOUDY 46 43 87 NW10G22 29.84S ROCKY MOUNT LGT RAIN 46 43 89 N14G31 29.88F FOG WASHINGTON CLOUDY 45 44 95 N13G23 29.82R WHITEVILLE NOT AVBL $$ AMZ130-135-150-152-154-156-158-170-250-252-270-ANZ085-086-088-633-658-670-261700- MARINE OBSERVATIONS STATION/POSITION TIME TEMP WIND PRES WAVE SWELL AIR SEA DIR/SP/G HT/PER HT/PER (UTC) (F) (DEG/KT/KT) (MB) (FT/S) (FT/S) CHESAPEAKE LIGHT 1600 50 10/ 38/ 42 1006.8 64 E VA BEACH 1600 73 67 180/ 23/ 29 1003.7 9/ 8 3/ 9 DUCK 1600 54 58 360/ 24/ 27 1005.9 2 E DUCK 1600 58 N/A 8/ 7 2/11 10 NE DUCK 1600 59 N/A 9/ 8 2/11 OREGON INLET 1600 64 58 190/ 16/ 18 1005.6 13E OREGON INLT 1600 62 N/A 10/ 8 2/11 HATTERAS CG 1600 72 62 190/ 12/ 19 1006.4 DIAMOND BUOY 1600 76 180/ 25/ 29 1006.2 12/ 8 2/15 17 S OCRACOKE NOT AVBL CAPE LOOKOUT 1600 68 230/ 18/ 24 1006.0 BEAUFORT LAB 1600 65 58 260/ 6/ 16 1005.2 30 SE NEW RIVER 1600 62 68 290/ 19/ 23 1007.6 10/ 7 5 SE WRIGHTSVLE 1600 47 59 340/ 25/ 29 1009.0 225 S CAPE HAT 1526 76 73 190/ 23/ 27 1013.7 9/ 7 2/15 41 SE CHARLESTON 1600 56 75 340/ 14/ 19 1012.0 8/ 6 3/ 8 $$

USA.gov is the U.S. government's official web portal to all federal, state and local government web resources and services.